Volver al catálogo

NOAA 16 DEB

ActivoSSO
NORAD 41288·DEBRIS·🇺🇸 United States

Lanzado Sep 21, 2000 desde Vandenberg Space Force Base

Loading…

Próximos Pases (próximas 24 horas)

TLE

ActualizadoSource: Space-Track

Época: Sep 13, 2026, 02:23 UTC

1 41288U 00055GQ  26256.09971919  .00004961  00000-0  16211-2 0  9992
2 41288  98.9001   8.0101 0020371 321.7050  38.2689 14.38906261552988

Sigue NOAA 16 DEB en tiempo real con AllMySat

Download on the App Store